Temperature
12 12 12 12 12 12 12 12 12 12 12 12 12 11 11 11 11 11 11 11 11 11 11 11 11 11 11 11 11 11 11 11 11 11 11 11 11 10 10 10 11 10 10
12 12 12 12 12 12 12 12 12 12 12 12 12 11 11 11 11 11 11 11 11 11 11 11 11 11 11 11 11 11 11 11 11 10 10 10 10 10 10 10 10 10 10
12 12 12 12 11 11 12 12 12 11 11 11 11 11 11 11 11 11 11 11 11 11 11 11 11 11 11 10 10 10 10 10 10 10 10 10 10 10 10 10 10 10 10
12 11 11 11 11 11 11 11 11 11 11 11 11 11 11 11 10 10 10 10 10 10 11 10 10 10 10 10 10 10 10 10 10 10 10 10 10 10 10 10 9 10 9
11 11 11 11 11 11 11 11 11 11 11 11 11 11 10 10 10 10 10 10 10 10 10 10 10 10 10 10 10 10 10 10 10 10 10 10 9 9 9 9 9 9 9
11 11 11 11 11 11 11 11 11 11 11 10 10 10 10 10 10 10 10 10 10 10 10 10 10 10 10 10 10 9 9 9 9 9 9 9 9 9 9 9 9 9 9
11 11 11 11 11 11 11 11 10 10 10 10 10 10 10 10 10 10 10 10 9 10 10 10 10 10 10 9 9 9 9 9 9 9 9 9 9 9 9 9 9 9 9
10 10 11 11 11 11 10 10 10 10 10 10 10 10 9 9 9 9 9 9 9 9 9 9 9 9 9 9 9 9 9 9 9 9 9 9 9 8 8 8 8 8 8
10 10 10 10 10 10 10 10 10 10 10 10 10 10 9 9 9 9 9 9 9 9 9 9 9 9 9 9 9 9 9 9 8 8 8 8 8 8 8 8 8 8 8
10 10 10 10 10 10 10 10 10 10 10 10 9 9 10 10 9 9 8 8 8 9 9 9 9 9 9 9 9 9 9 9 8 8 8 8 8 8 8 8 8 7 7
9 10 10 10 10 10 10 10 10 10 9 9 9 9 9 9 9 9 8 8 8 8 8 8 9 9 9 9 9 9 9 8 8 8 8 8 8 8 7 7 7 7 7
9 9 9 9 9 9 10 10 10 9 9 9 9 9 9 9 9 9 8 8 8 8 8 8 8 8 8 8 8 8 8 8 8 8 8 8 8 7 7 7 7 7 7
9 9 9 9 9 9 9 9 9 9 9 9 9 9 9 9 9 9 8 8 7 8 8 8 8 8 8 8 8 8 8 8 8 8 8 7 7 7 7 7 7 7 6
8 9 9 9 9 9 9 9 9 9 8 8 8 8 8 8 8 8 8 8 7 7 7 7 8 8 8 8 8 8 8 8 8 8 7 7 7 7 7 7 6 6 6
8 8 8 8 8 8 8 8 8 8 8 8 8 8 8 8 8 8 8 8 7 7 7 7 7 7 7 7 7 7 7 7 7 7 7 7 7 6 6 6 6 6 6
7 8 8 8 8 8 8 8 8 8 8 8 8 8 8 8 8 7 7 7 7 7 7 7 7 7 7 7 7 7 7 7 7 7 7 6 6 6 6 6 5 5 5
7 7 7 7 7 7 7 7 7 8 7 7 7 7 7 7 7 7 7 7 7 7 7 7 7 7 7 7 7 7 6 6 6 6 6 6 6 6 5 5 5 5 5
6 7 7 7 7 7 7 7 7 7 7 7 7 7 7 7 7 7 7 7 7 7 6 6 6 6 6 6 6 6 6 6 6 6 6 5 5 5 5 5 5 5 4
6 6 6 6 6 6 6 7 7 7 7 7 7 7 7 7 7 7 6 6 6 6 6 6 6 6 6 6 6 6 6 6 5 5 5 5 5 5 5 4 4 4 4
5 5 6 6 6 6 6 6 6 6 6 6 6 6 6 6 6 6 6 6 6 6 5 5 5 5 5 5 5 5 5 5 5 5 5 5 4 4 4 4 4 4 4
4 5 5 5 5 5 5 6 6 6 5 6 6 6 6 6 6 6 5 5 5 5 5 5 5 5 5 5 5 4 4 4 4 4 4 4 4 4 4 4 3 3 3
4 4 4 4 5 5 5 5 5 5 5 5 5 5 5 5 5 5 5 5 5 5 4 4 4 4 4 4 4 4 3 3 4 4 4 4 3 3 3 3 3 3 2
3 3 3 4 4 4 4 4 4 4 5 5 5 5 5 5 5 5 5 4 4 4 4 4 4 4 4 4 4 3 3 3 3 3 3 3 3 3 3 3 2 2 2
2 3 3 3 3 3 3 4 4 4 4 4 4 4 4 4 4 4 4 4 4 4 4 3 3 3 3 3 3 3 2 2 2 2 2 2 2 2 2 2 2 2 1
2 2 2 2 2 3 3 3 3 3 3 3 3 3 4 4 4 4 3 3 3 3 3 3 3 3 3 2 2 2 2 2 2 2 1 1 1 1 1 2 1 1 1
1 1 1 1 2 2 2 2 2 2 2 2 3 3 3 3 3 3 3 3 3 3 2 2 2 2 2 2 2 1 1 1 1 1 1 1 1 0 0 1 1 0 0
Wind_Speed
5 6 6 7 7 7 7 5 5 6 6 6 6 8 8 9 10 11 10 10 9 8 7 7 7 7 7 7 7 7 7 7 7 7 7 8 8 8 9 8 8 8 9
6 5 5 5 5 6 7 6 5 5 5 5 5 7 8 9 10 10 10 9 8 7 7 6 6 7 7 7 7 7 7 7 7 7 6 6 7 7 8 8 8 8 8
7 6 5 4 5 6 6 6 5 6 5 5 4 5 6 7 8 9 9 8 8 7 7 6 7 6 6 6 6 7 7 6 6 6 6 6 6 6 6 7 8 7 7
8 6 5 4 6 6 5 4 3 4 4 4 3 3 4 5 6 8 7 7 7 6 6 6 6 6 6 5 5 5 5 5 5 5 5 4 4 4 5 6 6 6 6
8 6 5 5 7 5 3 3 3 4 4 4 3 3 3 3 4 6 6 6 6 6 6 5 5 4 4 4 4 4 4 3 3 4 4 3 3 3 3 4 3 4 4
9 8 5 6 7 4 3 3 4 4 4 4 4 3 2 2 3 4 4 5 6 6 5 4 4 3 3 2 3 2 2 2 2 2 2 2 3 2 2 2 2 2 2
8 7 5 5 5 4 4 4 4 5 4 4 3 2 1 1 2 2 3 4 4 5 4 3 3 3 3 2 2 2 2 2 2 1 1 1 2 2 2 1 1 1 2
7 7 6 5 5 4 4 4 4 3 3 4 3 3 2 0 1 1 2 2 2 4 3 3 2 2 3 4 3 3 2 2 2 2 2 1 1 1 1 1 2 2 3
7 6 7 6 5 5 5 5 5 5 4 3 2 3 3 3 1 1 2 2 2 2 2 2 2 2 3 4 3 3 3 2 2 2 2 2 1 1 2 2 2 2 3
6 6 6 6 5 4 5 5 5 4 5 4 2 1 1 3 3 1 1 2 3 2 2 2 2 2 3 3 3 3 3 3 3 3 3 3 3 3 3 3 3 3 3
5 6 6 6 5 4 5 5 5 5 4 4 4 2 1 1 2 3 2 2 1 2 2 2 3 3 3 3 3 4 4 4 4 4 4 4 4 4 4 4 4 4 4
4 5 6 5 5 5 5 5 5 6 4 4 3 3 3 3 3 2 3 3 2 2 2 2 2 3 4 4 4 4 5 5 5 5 5 5 4 4 3 3 3 4 5
3 4 4 5 4 4 5 5 5 5 5 5 4 3 3 3 2 2 2 2 1 1 1 1 2 3 3 3 3 3 3 4 5 5 5 5 4 4 3 3 4 5 6
4 5 5 5 5 6 6 5 4 4 4 5 5 4 2 2 2 2 3 3 1 1 1 2 1 3 3 3 3 3 3 4 4 5 5 5 4 4 3 4 4 5 6
3 5 5 5 5 5 6 6 4 5 5 5 5 4 3 2 2 2 3 4 4 3 3 3 2 2 3 3 3 3 4 4 5 5 5 5 4 4 4 5 5 6 6
3 5 5 5 5 5 6 5 5 5 5 5 4 5 3 2 2 2 3 2 2 3 3 2 2 1 3 3 3 3 4 5 6 6 6 6 6 5 6 6 6 7 7
3 4 5 5 5 5 5 5 5 6 6 5 5 5 5 4 3 3 3 2 2 2 3 2 1 1 1 2 2 3 5 5 5 6 6 7 7 6 7 7 7 7 8
2 3 4 5 5 5 5 5 6 6 7 7 6 6 6 5 4 3 3 3 3 2 3 3 2 1 2 2 2 2 3 4 5 6 6 7 7 7 7 7 7 7 8
2 2 3 4 5 5 5 5 5 5 6 7 7 7 6 6 5 4 4 4 3 2 2 2 2 1 1 1 1 1 2 3 4 6 6 7 7 7 7 7 7 7 8
2 2 3 3 4 4 5 5 5 5 5 5 6 6 6 7 7 6 5 5 4 3 3 2 2 2 2 1 1 1 2 2 3 4 6 6 6 7 7 7 7 8 8
1 2 2 3 3 3 4 5 5 5 5 5 5 5 5 6 7 6 5 5 5 4 3 3 3 2 2 2 2 2 3 2 3 2 2 4 5 5 6 7 8 8 8
1 2 2 3 3 3 4 5 5 5 5 5 5 4 4 5 6 6 6 6 7 6 5 4 4 4 4 3 2 2 2 2 3 2 1 3 3 3 5 6 7 7 7
1 1 2 3 3 3 4 5 5 4 4 4 5 5 4 4 5 4 5 5 5 6 7 5 5 5 4 4 4 3 3 3 4 2 1 4 2 3 5 6 6 6 7
1 2 2 3 3 3 4 5 5 3 3 4 4 5 5 5 4 4 4 3 2 3 4 4 4 4 3 2 3 4 3 2 2 2 1 3 3 3 4 6 7 7 7
1 2 2 2 3 3 5 5 5 3 3 3 3 4 5 5 6 6 5 4 3 1 2 4 4 4 4 4 3 1 1 1 3 3 1 2 2 2 3 3 5 6 7
2 2 1 2 2 3 4 5 5 3 4 3 3 4 5 5 6 6 5 5 4 3 2 1 1 1 2 3 3 3 3 3 2 3 1 1 2 1 3 3 3 5 6
Wind_Direction
140 141 140 147 151 152 150 155 147 135 123 121 117 112 107 109 109 106 103 98 93 91 91 90 90 94 94 96 88 84 87 85 82 83 81 76 74 71 68 67 67 69 68
139 139 135 138 144 147 151 147 135 122 110 106 99 103 107 109 110 113 114 107 101 96 92 90 93 95 93 92 90 87 89 88 84 86 83 79 76 73 68 66 65 66 65
142 137 133 133 139 143 142 134 122 115 109 102 96 92 97 103 114 118 121 119 112 103 97 93 92 90 89 93 95 91 92 92 93 88 81 80 79 74 70 69 65 61 59
146 138 134 136 141 136 128 123 123 116 111 112 106 96 95 101 111 116 122 122 119 114 109 105 98 90 83 87 100 100 96 93 95 93 82 78 82 78 75 72 66 61 59
151 141 134 138 139 132 133 142 134 128 125 122 113 101 89 94 105 111 109 115 118 120 122 121 115 108 93 85 106 108 105 103 101 99 91 78 75 75 75 69 61 57 54
155 146 142 145 141 135 143 143 140 131 132 130 112 91 79 96 98 110 119 117 122 124 121 125 131 138 126 105 111 121 123 124 131 122 107 87 66 64 66 60 47 39 39
158 149 149 147 145 150 157 152 142 135 137 131 112 96 43 64 104 122 126 120 119 125 125 127 142 150 158 158 156 156 154 163 160 164 141 110 72 46 37 29 14 8 358
161 160 151 152 148 149 154 156 145 140 151 154 139 137 140 121 303 157 134 136 137 136 141 153 155 157 152 161 178 180 185 190 202 203 191 161 101 31 5 345 345 1 344
166 163 158 152 155 157 166 167 159 152 161 175 166 152 154 185 172 199 190 169 159 145 154 162 173 169 176 168 169 181 188 194 207 221 225 231 249 283 299 309 324 334 334
167 160 158 155 159 161 165 170 164 160 158 172 191 194 144 134 137 156 241 207 176 170 178 182 187 187 177 169 173 183 192 203 223 245 256 265 272 285 301 306 317 325 334
170 163 163 161 163 164 164 165 159 166 169 173 173 169 151 100 121 147 191 211 208 212 189 182 184 183 178 177 187 198 211 219 232 250 259 263 269 278 292 302 315 324 320
174 168 168 167 164 163 165 166 166 172 177 170 166 164 158 157 176 167 177 185 198 227 199 178 178 180 187 187 196 210 223 230 235 251 261 262 268 278 296 306 312 321 318
175 181 172 171 168 167 167 164 168 175 176 173 173 178 178 175 161 154 154 173 177 220 193 208 192 186 192 188 194 213 230 237 242 249 259 259 260 269 280 296 303 309 313
182 180 182 178 175 173 173 169 174 179 177 175 174 171 172 178 166 160 161 159 169 244 233 228 212 181 179 183 206 214 226 236 244 253 258 258 257 256 266 280 289 296 303
181 181 185 184 181 177 176 174 182 184 180 180 178 177 171 175 170 166 157 160 165 196 239 230 207 192 177 186 203 216 225 231 243 252 255 258 253 256 262 271 278 284 288
180 180 184 181 181 182 180 178 180 182 178 181 178 177 178 174 170 169 170 180 174 180 214 224 210 193 181 194 215 220 234 239 242 247 245 243 248 255 260 266 273 278 283
181 187 184 180 184 190 187 184 183 182 181 180 178 182 187 175 173 177 171 173 185 177 210 251 246 186 188 202 225 238 241 240 244 241 242 246 251 257 259 264 270 273 278
185 184 182 180 185 191 189 186 187 185 184 186 188 187 190 181 179 179 179 187 190 185 194 223 237 222 222 215 214 234 247 245 244 245 249 254 256 259 261 265 268 271 277
191 185 189 186 189 191 191 192 191 190 191 192 190 190 188 180 189 189 187 191 191 190 186 197 228 230 239 229 235 273 265 260 259 254 259 257 258 262 265 267 267 272 278
192 188 200 198 197 188 189 193 191 189 191 195 194 191 189 189 193 189 192 193 188 182 181 190 214 226 226 229 191 236 274 270 267 261 261 260 265 268 268 266 268 271 274
226 200 196 198 196 191 193 189 190 190 193 192 191 191 192 192 196 194 196 192 186 187 190 198 216 224 224 207 219 213 242 272 272 249 263 262 258 262 267 266 265 268 270
237 206 192 189 188 203 195 186 186 190 192 189 189 189 188 189 194 197 201 196 192 192 197 203 215 214 225 222 215 214 226 248 270 259 242 273 249 261 268 264 267 268 269
256 237 208 193 196 199 189 186 188 190 192 193 190 188 191 191 190 187 188 189 199 209 204 203 211 219 224 210 195 215 227 235 248 239 236 270 266 267 273 273 277 273 274
233 245 232 206 198 202 191 191 188 190 193 194 193 190 188 187 188 177 171 174 195 212 210 203 202 211 217 200 195 207 219 254 279 270 199 256 269 268 284 281 272 272 282
270 251 244 214 203 206 197 195 189 186 193 198 193 188 184 185 185 171 166 175 184 215 218 201 199 193 193 197 189 158 189 224 263 260 215 239 273 283 284 278 273 273 287
274 269 267 225 204 208 204 197 193 190 196 199 193 190 191 186 182 177 178 179 190 201 167 141 153 160 168 180 185 185 194 213 244 256 228 210 253 289 291 282 282 285 287
Height
1540 1543 1545 1547 1549 1551 1553 1556 1558 1560 1562 1563 1565 1566 1567 1568 1569 1570 1571 1572 1572 1573 1573 1574 1574 1574 1574 1575 1574 1574 1574 1574 1574 1575 1575 1575 1575 1575 1575 1575 1575 1575 1575
1539 1541 1543 1546 1548 1551 1553 1555 1557 1559 1561 1563 1564 1565 1566 1567 1568 1569 1570 1571 1572 1573 1573 1574 1574 1574 1574 1574 1574 1574 1574 1574 1575 1575 1575 1575 1575 1575 1575 1575 1575 1575 1575
1538 1540 1542 1544 1547 1550 1552 1554 1556 1558 1560 1562 1563 1565 1566 1567 1568 1569 1570 1571 1571 1572 1573 1573 1574 1574 1574 1574 1574 1574 1574 1575 1575 1575 1575 1575 1575 1575 1575 1575 1575 1574 1574
1536 1538 1540 1543 1545 1548 1550 1552 1555 1557 1559 1560 1562 1564 1565 1566 1567 1568 1569 1570 1571 1571 1572 1573 1573 1573 1574 1574 1574 1574 1574 1574 1574 1574 1574 1574 1574 1574 1574 1574 1574 1574 1573
1534 1536 1539 1541 1543 1546 1548 1550 1553 1555 1557 1559 1561 1563 1564 1565 1567 1567 1568 1569 1570 1571 1571 1572 1572 1573 1573 1573 1573 1573 1573 1574 1574 1574 1574 1574 1574 1574 1573 1573 1573 1573 1572
1531 1534 1536 1538 1541 1543 1546 1548 1551 1553 1555 1557 1559 1561 1563 1564 1566 1566 1567 1568 1569 1570 1570 1571 1571 1572 1572 1572 1573 1573 1572 1572 1573 1573 1573 1573 1573 1572 1572 1572 1572 1572 1571
1529 1531 1533 1536 1538 1541 1543 1546 1548 1551 1553 1555 1558 1560 1562 1563 1564 1565 1566 1567 1568 1568 1569 1570 1570 1570 1571 1571 1571 1571 1571 1571 1571 1572 1572 1571 1571 1571 1571 1571 1571 1570 1570
1526 1528 1531 1533 1535 1538 1541 1543 1546 1548 1550 1553 1555 1557 1559 1562 1562 1563 1564 1565 1566 1566 1567 1568 1569 1569 1569 1569 1570 1570 1570 1570 1570 1570 1570 1570 1570 1570 1570 1570 1569 1569 1568
1523 1525 1528 1530 1533 1535 1538 1540 1543 1545 1547 1550 1552 1555 1556 1558 1560 1561 1562 1563 1564 1564 1565 1566 1567 1567 1567 1568 1568 1568 1568 1569 1569 1569 1569 1569 1568 1568 1568 1568 1567 1567 1566
1520 1522 1525 1527 1530 1532 1535 1537 1540 1542 1545 1547 1550 1552 1554 1555 1557 1558 1560 1560 1561 1562 1563 1564 1564 1565 1565 1566 1566 1566 1567 1567 1567 1567 1567 1567 1567 1567 1566 1566 1566 1565 1564
1516 1519 1522 1524 1527 1529 1532 1534 1537 1539 1541 1544 1546 1548 1550 1552 1553 1555 1556 1558 1559 1560 1560 1561 1562 1562 1563 1563 1564 1564 1565 1565 1565 1565 1565 1565 1564 1564 1564 1563 1563 1562 1562
1513 1515 1518 1521 1524 1526 1529 1531 1533 1536 1538 1541 1543 1545 1547 1548 1550 1552 1553 1554 1556 1557 1558 1559 1559 1560 1560 1561 1561 1562 1562 1562 1562 1562 1562 1562 1562 1561 1561 1561 1560 1560 1559
1508 1511 1515 1517 1520 1523 1525 1528 1530 1532 1535 1537 1539 1542 1544 1545 1548 1549 1551 1552 1553 1554 1555 1555 1556 1557 1558 1558 1559 1559 1559 1560 1560 1560 1559 1559 1559 1558 1558 1558 1557 1557 1556
1504 1508 1511 1514 1516 1519 1522 1524 1526 1529 1531 1533 1536 1538 1540 1542 1544 1546 1548 1549 1550 1551 1551 1552 1553 1554 1555 1555 1556 1556 1556 1556 1557 1556 1556 1556 1556 1555 1555 1554 1554 1553 1553
1501 1504 1506 1510 1512 1515 1518 1520 1522 1525 1527 1530 1532 1534 1536 1538 1540 1542 1544 1546 1547 1547 1548 1549 1550 1551 1551 1552 1552 1553 1553 1553 1553 1553 1553 1553 1552 1552 1551 1551 1550 1550 1549
1497 1500 1502 1505 1508 1511 1513 1516 1518 1521 1523 1525 1528 1530 1532 1534 1536 1538 1540 1542 1543 1544 1544 1545 1546 1547 1548 1549 1549 1549 1549 1550 1549 1549 1549 1549 1549 1548 1548 1547 1547 1546 1545
1493 1495 1498 1501 1503 1506 1509 1511 1514 1516 1519 1521 1524 1526 1528 1530 1532 1534 1536 1538 1539 1541 1541 1541 1543 1544 1544 1545 1545 1546 1546 1546 1546 1546 1545 1545 1545 1544 1544 1543 1543 1542 1541
1489 1492 1494 1497 1499 1501 1504 1507 1509 1512 1515 1517 1519 1522 1524 1526 1528 1530 1531 1533 1535 1536 1537 1537 1538 1539 1540 1541 1541 1542 1542 1542 1542 1542 1542 1541 1541 1540 1540 1539 1538 1538 1537
1485 1488 1490 1492 1495 1497 1500 1502 1505 1507 1510 1513 1515 1517 1519 1521 1523 1525 1527 1528 1530 1531 1533 1533 1533 1535 1536 1537 1537 1537 1538 1538 1538 1538 1537 1537 1537 1536 1536 1535 1534 1533 1532
1481 1483 1486 1488 1491 1493 1496 1498 1501 1503 1506 1508 1510 1512 1514 1516 1518 1520 1522 1523 1525 1526 1528 1529 1529 1530 1531 1532 1532 1533 1533 1533 1534 1534 1533 1533 1532 1532 1531 1530 1530 1529 1527
1477 1479 1482 1484 1486 1489 1491 1493 1496 1499 1501 1504 1506 1508 1510 1512 1513 1515 1517 1518 1520 1521 1523 1523 1524 1525 1526 1527 1527 1528 1528 1529 1528 1529 1528 1528 1527 1527 1526 1525 1524 1523 1523
1473 1475 1477 1480 1482 1484 1486 1489 1492 1494 1496 1498 1501 1503 1505 1507 1509 1511 1512 1514 1516 1517 1517 1518 1519 1520 1521 1522 1523 1523 1524 1523 1523 1524 1524 1523 1523 1522 1521 1520 1519 1518 1517
1469 1471 1473 1475 1477 1480 1482 1484 1487 1489 1491 1493 1496 1498 1500 1502 1504 1506 1507 1509 1510 1512 1513 1514 1515 1515 1516 1517 1518 1519 1519 1519 1518 1519 1518 1517 1517 1516 1516 1515 1514 1513 1512
1466 1467 1469 1471 1473 1475 1478 1480 1482 1485 1487 1489 1491 1493 1495 1497 1499 1501 1503 1504 1505 1507 1508 1509 1510 1511 1512 1513 1514 1514 1514 1514 1514 1513 1513 1512 1511 1511 1511 1510 1509 1508 1507
1462 1463 1465 1467 1468 1471 1473 1475 1478 1480 1482 1484 1486 1489 1491 1492 1495 1496 1498 1499 1500 1502 1504 1505 1506 1507 1508 1508 1509 1509 1509 1509 1508 1508 1508 1508 1506 1505 1504 1504 1504 1503 1502
1458 1459 1461 1463 1464 1466 1469 1471 1473 1475 1477 1479 1481 1484 1486 1488 1490 1491 1493 1494 1495 1497 1498 1499 1501 1502 1503 1503 1504 1504 1504 1504 1503 1503 1503 1503 1501 1500 1498 1497 1498 1498 1496